Regional Weather Roundup
Issued by NWS

Home | Current Version | Previous Version | Graphics & Text | Print | Product List | Glossary On
Versions: 1 2 3 4 5 6 7 8 9 10 11 12 13 14 15 16 17 18 19 20 21 22 23 24 25 26 27 28 29 30 31 32 33 34 35 36 37 38 39 40 41 42 43 44 45 46 47 48 49 50
000
ASUS43 KFSD 262202
RWRSD

WEATHER ROUNDUP FOR SOUTH DAKOTA
NATIONAL WEATHER SERVICE SIOUX FALLS SD
500 PM CDT THU MAR 26 2015

NOTE: "FAIR" INDICATES FEW OR NO CLOUDS BELOW 12,000 FEET WITH NO
SIGNIFICANT WEATHER AND/OR OBSTRUCTIONS TO VISIBILITY.


SDZ001>005-009-010-012>017-262300-
NORTHWEST AND NORTH CENTRAL SOUTH DAKOTA

CITY           SKY/WX    TMP DP  RH WIND       PRES   REMARKS
BUFFALO          N/A     47  30  51 E12       30.06S
MOBRIDGE       CLOUDY    42  23  46 N8        30.17S
$$

SDZ012>016-024>037-041>051-057-063-072>074-262300-
SOUTHWEST AND SOUTH CENTRAL SOUTH DAKOTA

CITY           SKY/WX    TMP DP  RH WIND       PRES   REMARKS
RAPID CTY ARPT CLOUDY    48  29  47 N13       30.11S
PIERRE         CLOUDY    37  29  72 E6        30.19R
CUSTER         CLOUDY    44  25  47 N7        30.08R
ELLSWORTH AFB  CLOUDY    47  29  50 N10       30.11S
PHILIP         CLOUDY    39  28  64 NE12      30.18R
PINE RIDGE     CLOUDY    48  26  42 N17       30.10R
SPEARFISH      FAIR      45  27  49 NW13      30.12S
WINNER         CLOUDY    36  29  75 NE10      30.18R
$$

SDZ004>011-016>023-039-040-262300-
NORTHEAST SOUTH DAKOTA

CITY           SKY/WX    TMP DP  RH WIND       PRES   REMARKS
ABERDEEN       MOSUNNY   39  14  36 N14G22    30.21S
WATERTOWN      MOSUNNY   35  16  45 N18       30.15S WCI  24
SISSETON         N/A     35  16  45 N20       30.19F WCI  24
$$

SDZ017-020-022-023-036>040-048>070-262300-
SOUTHEAST SOUTH DAKOTA

CITY           SKY/WX    TMP DP  RH WIND       PRES   REMARKS
SIOUX FALLS    CLOUDY    39  22  50 N14       30.14S
HURON          CLOUDY    40  20  44 N14       30.18S
MITCHELL       CLOUDY    39  26  59 NW8       30.18S
YANKTON        CLOUDY    36  28  75 NW9       30.17S
$$

ABBREVIATIONS USED IN REMARKS
   TC - TEMPERATURE IN CELSIUS
  WCI - WIND CHILL INDEX
   HX - HEAT INDEX
  VSB - VISIBILITY




USA.gov is the U.S. government's official web portal to all federal, state and local government web resources and services.